Zurück zum Katalog

STARLINK-32695

AktivKommunikationVLEO
NORAD 62866·PAYLOAD·🇺🇸 United States

Gestartet Feb 1, 2025 von Vandenberg Space Force Base

Loading…

Nächste Überflüge (nächste 24 Stunden)

TLE

AktuellSource: CelesTrak SupGP

Epoche: Sep 15, 2026, 02:12 UTC

1 62866C 25022N   26258.09215278  .00067637  00000+0  19980-2 0  2581
2 62866  53.1584 325.3015 0001200  90.0011 238.4050 15.34362487    15

Verfolge STARLINK-32695 in Echtzeit mit AllMySat

Download on the App Store